• In Latvia
  • List of Countries
  • For 7 days
  • Water Temperature
  • Satellite Maps
  • Weather Map
  • Weather Widgets
  • user-avatar
    Login

    Hourly Weather Sevastopolskaya

    Today, 20 August, Monday

    Time Temperature Precipitation Wind Pressure Humidity
    00:00 +18°C° 0 mm 4 mps 723 mmHg 52%
    01:00 +17°C° 0 mm 4 mps 722 mmHg 50%
    02:00 +17°C° 0 mm 4 mps 722 mmHg 48%
    03:00 +16°C° 0 mm 3 mps 722 mmHg 49%
    04:00 +16°C° 0 mm 3 mps 722 mmHg 50%
    05:00 +16°C° 0 mm 3 mps 723 mmHg 52%
    06:00 +14°C° 0 mm 3 mps 723 mmHg 54%
    07:00 +18°C° 0 mm 3 mps 723 mmHg 50%
    08:00 +21°C° 0 mm 4 mps 723 mmHg 46%
    09:00 +23°C° 0 mm 4 mps 723 mmHg 41%
    10:00 +26°C° 0 mm 4 mps 723 mmHg 39%
    11:00 +27°C° 0 mm 4 mps 723 mmHg 37%
    12:00 +29°C° 0 mm 4 mps 723 mmHg 35%
    13:00 +29°C° 0 mm 4 mps 723 mmHg 35%
    14:00 +29°C° 0 mm 4 mps 723 mmHg 35%
    15:00 +30°C° 0 mm 4 mps 723 mmHg 35%
    16:00 +29°C° 0 mm 4 mps 723 mmHg 40%
    17:00 +28°C° 0 mm 4 mps 723 mmHg 45%
    18:00 +27°C° 0 mm 3 mps 722 mmHg 49%
    19:00 +25°C° 0 mm 3 mps 722 mmHg 54%
    20:00 +21°C° 0 mm 3 mps 722 mmHg 59%
    21:00 +19°C° 0 mm 3 mps 722 mmHg 63%
    22:00 +19°C° 0 mm 2 mps 722 mmHg 66%
    23:00 +18°C° 0 mm 2 mps 722 mmHg 69%

    Tomorrow, 21 August, Tuesday

    Time Temperature Precipitation Wind Pressure Humidity
    00:00 +18°C° 0 mm 2 mps 722 mmHg 71%
    01:00 +18°C° 0 mm 2 mps 722 mmHg 72%
    02:00 +17°C° 0 mm 2 mps 722 mmHg 74%
    03:00 +17°C° 0 mm 2 mps 722 mmHg 75%
    04:00 +17°C° 0 mm 2 mps 722 mmHg 75%
    05:00 +17°C° 0 mm 2 mps 722 mmHg 74%
    06:00 +17°C° 0 mm 2 mps 722 mmHg 74%
    07:00 +21°C° 0 mm 1 mps 722 mmHg 65%
    08:00 +25°C° 0 mm 1 mps 723 mmHg 56%
    09:00 +28°C° 0 mm 1 mps 723 mmHg 46%
    10:00 +29°C° 0 mm 1 mps 723 mmHg 43%
    11:00 +30°C° 0 mm 1 mps 723 mmHg 40%
    12:00 +32°C° 0 mm 2 mps 723 mmHg 37%
    13:00 +32°C° 0.1 mm 2 mps 723 mmHg 38%
    14:00 +32°C° 0.1 mm 2 mps 723 mmHg 40%
    15:00 +32°C° 0.1 mm 2 mps 722 mmHg 41%
    16:00 +31°C° 0.1 mm 2 mps 722 mmHg 44%
    17:00 +30°C° 0.1 mm 2 mps 722 mmHg 47%
    18:00 +30°C° 0.1 mm 1 mps 722 mmHg 50%
    19:00 +27°C° 0 mm 1 mps 722 mmHg 55%
    20:00 +25°C° 0 mm 1 mps 722 mmHg 60%
    21:00 +23°C° 0 mm 1 mps 722 mmHg 64%
    22:00 +21°C° 0 mm 2 mps 722 mmHg 66%
    23:00 +21°C° 0 mm 2 mps 722 mmHg 67%

    Day after tomorrow, 22 August, Wednesday

    Time Temperature Precipitation Wind Pressure Humidity
    00:00 +20°C° 0 mm 2 mps 722 mmHg 69%
    01:00 +20°C° 0 mm 2 mps 722 mmHg 69%
    02:00 +20°C° 0 mm 2 mps 722 mmHg 70%
    03:00 +19°C° 0 mm 2 mps 722 mmHg 70%
    04:00 +19°C° 0 mm 2 mps 722 mmHg 71%
    05:00 +19°C° 0 mm 2 mps 722 mmHg 71%
    06:00 +20°C° 0 mm 1 mps 722 mmHg 72%
    07:00 +23°C° 0 mm 1 mps 723 mmHg 64%
    08:00 +26°C° 0 mm 1 mps 723 mmHg 55%
    09:00 +28°C° 0 mm 1 mps 723 mmHg 47%
    10:00 +30°C° 0 mm 2 mps 723 mmHg 43%
    11:00 +31°C° 0 mm 2 mps 723 mmHg 40%
    12:00 +32°C° 0 mm 2 mps 723 mmHg 36%
    13:00 +32°C° 0.2 mm 2 mps 723 mmHg 37%
    14:00 +32°C° 0.2 mm 2 mps 723 mmHg 37%
    15:00 +32°C° 0.2 mm 2 mps 723 mmHg 38%
    16:00 +31°C° 0.1 mm 2 mps 723 mmHg 40%
    17:00 +31°C° 0.1 mm 2 mps 723 mmHg 42%
    18:00 +30°C° 0.1 mm 2 mps 723 mmHg 44%
    19:00 +28°C° 0 mm 2 mps 723 mmHg 46%
    20:00 +25°C° 0 mm 2 mps 723 mmHg 49%
    21:00 +23°C° 0 mm 2 mps 723 mmHg 51%
    22:00 +22°C° 0 mm 1 mps 723 mmHg 51%
    23:00 +22°C° 0 mm 1 mps 723 mmHg 51%

    23 August, Thursday

    Time Temperature Precipitation Wind Pressure Humidity
    00:00 +21°C° 0 mm 1 mps 723 mmHg 51%
    01:00 +21°C° 0 mm 1 mps 723 mmHg 51%
    02:00 +20°C° 0 mm 1 mps 723 mmHg 52%
    03:00 +20°C° 0 mm 1 mps 723 mmHg 52%
    04:00 +20°C° 0 mm 1 mps 723 mmHg 54%
    05:00 +19°C° 0 mm 1 mps 723 mmHg 56%
    06:00 +19°C° 0 mm 1 mps 724 mmHg 58%
    07:00 +22°C° 0 mm 1 mps 724 mmHg 53%
    08:00 +25°C° 0 mm 1 mps 724 mmHg 47%
    09:00 +27°C° 0 mm 2 mps 724 mmHg 42%
    10:00 +29°C° 0 mm 2 mps 724 mmHg 39%
    11:00 +30°C° 0 mm 3 mps 724 mmHg 36%
    12:00 +33°C° 0 mm 3 mps 724 mmHg 33%
    13:00 +33°C° 0 mm 3 mps 724 mmHg 32%
    14:00 +33°C° 0 mm 4 mps 724 mmHg 32%
    15:00 +34°C° 0 mm 4 mps 724 mmHg 32%
    16:00 +33°C° 0 mm 4 mps 723 mmHg 37%
    17:00 +31°C° 0 mm 3 mps 723 mmHg 41%
    18:00 +30°C° 0 mm 3 mps 723 mmHg 45%
    19:00 +28°C° 0 mm 3 mps 723 mmHg 50%
    20:00 +26°C° 0 mm 3 mps 723 mmHg 54%
    21:00 +24°C° 0 mm 3 mps 723 mmHg 59%
    22:00 +22°C° 0 mm 3 mps 723 mmHg 60%
    23:00 +22°C° 0 mm 3 mps 723 mmHg 62%

    24 August, Friday

    Time Temperature Precipitation Wind Pressure Humidity
    00:00 +21°C° 0 mm 3 mps 723 mmHg 63%
    01:00 +21°C° 0 mm 3 mps 723 mmHg 64%
    02:00 +20°C° 0 mm 3 mps 723 mmHg 65%
    03:00 +20°C° 0 mm 2 mps 723 mmHg 66%
    04:00 +19°C° 0 mm 2 mps 723 mmHg 67%
    05:00 +19°C° 0 mm 2 mps 723 mmHg 68%
    06:00 +19°C° 0 mm 2 mps 723 mmHg 69%
    07:00 +21°C° 0 mm 2 mps 723 mmHg 62%
    08:00 +25°C° 0 mm 3 mps 723 mmHg 55%
    09:00 +28°C° 0 mm 3 mps 724 mmHg 48%
    10:00 +29°C° 0 mm 4 mps 723 mmHg 45%
    11:00 +30°C° 0 mm 4 mps 723 mmHg 41%
    12:00 +33°C° 0 mm 4 mps 723 mmHg 38%
    13:00 +33°C° 0.1 mm 5 mps 723 mmHg 39%
    14:00 +33°C° 0.1 mm 5 mps 723 mmHg 40%
    15:00 +33°C° 0.1 mm 5 mps 722 mmHg 41%
    16:00 +32°C° 0.2 mm 5 mps 722 mmHg 45%
    17:00 +30°C° 0.2 mm 5 mps 722 mmHg 50%
    18:00 +29°C° 0.2 mm 4 mps 722 mmHg 54%
    19:00 +27°C° 0.1 mm 4 mps 722 mmHg 57%
    20:00 +26°C° 0.1 mm 4 mps 722 mmHg 61%
    21:00 +23°C° 0.1 mm 4 mps 722 mmHg 65%
    22:00 +22°C° 0 mm 4 mps 722 mmHg 67%
    23:00 +22°C° 0 mm 4 mps 722 mmHg 69%

    25 August, Saturday

    Time Temperature Precipitation Wind Pressure Humidity
    00:00 +21°C° 0 mm 3 mps 722 mmHg 71%
    01:00 +20°C° 0 mm 3 mps 721 mmHg 73%
    02:00 +20°C° 0 mm 3 mps 721 mmHg 75%
    03:00 +19°C° 0 mm 2 mps 721 mmHg 77%
    04:00 +19°C° 0 mm 2 mps 721 mmHg 77%
    05:00 +19°C° 0 mm 2 mps 721 mmHg 78%
    06:00 +19°C° 0 mm 2 mps 721 mmHg 78%
    07:00 +21°C° 0 mm 2 mps 722 mmHg 69%
    08:00 +25°C° 0 mm 2 mps 722 mmHg 61%
    09:00 +28°C° 0 mm 2 mps 722 mmHg 52%
    10:00 +29°C° 0 mm 2 mps 722 mmHg 48%
    11:00 +31°C° 0 mm 2 mps 722 mmHg 44%
    12:00 +33°C° 0 mm 3 mps 722 mmHg 39%
    13:00 +33°C° 0 mm 3 mps 721 mmHg 41%
    14:00 +33°C° 0 mm 3 mps 721 mmHg 43%
    15:00 +33°C° 0 mm 3 mps 721 mmHg 44%
    16:00 +31°C° 0.1 mm 3 mps 721 mmHg 48%
    17:00 +30°C° 0.1 mm 3 mps 720 mmHg 52%
    18:00 +29°C° 0.1 mm 3 mps 720 mmHg 56%
    19:00 +27°C° 0 mm 3 mps 720 mmHg 62%
    20:00 +25°C° 0 mm 3 mps 720 mmHg 67%
    21:00 +23°C° 0 mm 2 mps 720 mmHg 72%
    22:00 +23°C° 0 mm 2 mps 720 mmHg 74%
    23:00 +21°C° 0 mm 2 mps 720 mmHg 75%
    Show more